This is the latest recevied weather packets stored in our database for station/object KC3UTO. If no packets are shown the sender has not sent any weather packets the latest 10 day(s).
| Time | Temp. | Humidity | Pressure | Rain* | Wind** | Luminosity | Snow |
|---|---|---|---|---|---|---|---|
| 1777750165 | 14.44° C | 32% | 1010.6 hPa | 0 mm | - | 229 W/m² | - |
| 1777749863 | 15.56° C | 31% | 1010.6 hPa | 0 mm | - | 234 W/m² | - |
| 1777749559 | 15.56° C | 32% | 1010.7 hPa | 0 mm | - | 270 W/m² | - |
| 1777748955 | 15° C | 33% | 1011 hPa | 0 mm | - | 202 W/m² | - |
| 1777748652 | 15° C | 34% | 1011.2 hPa | 0 mm | - | 286 W/m² | - |
| 1777748348 | 15° C | 36% | 1011 hPa | 0 mm | - | 235 W/m² | - |
| 1777747436 | 15° C | 32% | 1011.2 hPa | 0 mm | - | 759 W/m² | - |
| 1777747133 | 15° C | 34% | 1011.3 hPa | 0 mm | - | 245 W/m² | - |
| 1777746829 | 15.56° C | 31% | 1011.2 hPa | 0 mm | - | 270 W/m² | - |
| 1777744705 | 15° C | 35% | 1011.3 hPa | 0 mm | - | 1151 W/m² | - |
| 1777741673 | 13.89° C | 40% | 1011.6 hPa | 0 mm | - | 364 W/m² | - |
| 1777739852 | 14.44° C | 39% | 1012 hPa | 0 mm | - | 211 W/m² | - |
| 1777739246 | 13.89° C | 40% | 1012.4 hPa | 0 mm | - | 295 W/m² | - |
| 1777738640 | 13.89° C | 42% | 1012.3 hPa | 0 mm | - | 1028 W/m² | - |
| 1777738034 | 12.78° C | 45% | 1012.5 hPa | 0 mm | - | 589 W/m² | - |
| 1777737431 | 13.33° C | 44% | 1012.2 hPa | 0 mm | - | 675 W/m² | - |
| 1777736200 | 13.33° C | 44% | 1012.5 hPa | 0 mm | - | 287 W/m² | - |
| 1777735897 | 13.33° C | 47% | 1012.6 hPa | 0 mm | - | 327 W/m² | - |
| 1777735595 | 12.78° C | 49% | 1012.6 hPa | 0 mm | - | 599 W/m² | - |
| 1777735292 | 12.78° C | 46% | 1012.4 hPa | 0 mm | - | 341 W/m² | - |
| 1777734990 | 13.33° C | 48% | 1012.6 hPa | 0 mm | - | 613 W/m² | - |
| 1777734686 | 12.78° C | 48% | 1012.4 hPa | 0 mm | - | 405 W/m² | - |
| 1777734384 | 12.78° C | 46% | 1012.5 hPa | 0 mm | - | 801 W/m² | - |
| 1777734080 | 12.22° C | 49% | 1012.4 hPa | 0 mm | - | 661 W/m² | - |
| 1777733776 | 12.22° C | 47% | 1012.4 hPa | 0 mm | - | 677 W/m² | - |
* Rain latest hour (hover to see other rain measurements)
** Current wind speed in m/s (hover to see current wind gust speed)